This is the latest recevied weather packets stored in our database for station/object LU3HGB-WX. If no packets are shown the sender has not sent any weather packets the latest 10 day(s).
| Time | Temp. | Humidity | Pressure | Rain* | Wind** | Luminosity | Snow |
|---|---|---|---|---|---|---|---|
| 1788028659 | 21.11° C | 36% | 1012 hPa | 0 mm | - | 685 W/m² | - |
| 1788028359 | 21.11° C | 36% | 1012 hPa | 0 mm | - | 692 W/m² | - |
| 1788028059 | 20.56° C | 37% | 1012 hPa | 0 mm | - | 934 W/m² | - |
| 1788027760 | 20.56° C | 34% | 1012 hPa | 0 mm | - | 355 W/m² | - |
| 1788027460 | 20.56° C | 35% | 1012 hPa | 0 mm | - | 394 W/m² | - |
| 1788027160 | 20.56° C | 39% | 1012 hPa | 0 mm | - | 365 W/m² | - |
| 1788026859 | 20.56° C | 38% | 1012 hPa | 0 mm | - | 779 W/m² | - |
| 1788026559 | 20.56° C | 40% | 1012 hPa | 0 mm | - | 483 W/m² | - |
| 1788026259 | 21.11° C | 38% | 1013 hPa | 0 mm | - | 127 W/m² | - |
| 1788025959 | 21.67° C | 36% | 1013 hPa | 0 mm | - | 401 W/m² | - |
| 1788025660 | 21.11° C | 38% | 1012 hPa | 0 mm | - | 751 W/m² | - |
| 1788025360 | 21.11° C | 39% | 1012 hPa | 0 mm | - | 760 W/m² | - |
| 1788025060 | 20.56° C | 39% | 1013 hPa | 0 mm | - | 705 W/m² | - |
| 1788024760 | 21.11° C | 37% | 1013 hPa | 0 mm | - | 608 W/m² | - |
| 1788024460 | 21.11° C | 38% | 1013 hPa | 0 mm | - | 785 W/m² | - |
| 1788024159 | 21.11° C | 38% | 1013 hPa | 0 mm | - | 649 W/m² | - |
| 1788023859 | 20.56° C | 38% | 1013 hPa | 0 mm | - | 867 W/m² | - |
| 1788023559 | 20.56° C | 39% | 1013 hPa | 0 mm | - | 741 W/m² | - |
| 1788023260 | 20.56° C | 40% | 1013 hPa | 0 mm | - | 815 W/m² | - |
| 1788022959 | 20.56° C | 38% | 1013 hPa | 0 mm | - | 770 W/m² | - |
| 1788022660 | 20.56° C | 40% | 1013 hPa | 0 mm | - | 719 W/m² | - |
| 1788022360 | 20.56° C | 39% | 1013 hPa | 0 mm | - | 723 W/m² | - |
| 1788022059 | 20.56° C | 41% | 1013 hPa | 0 mm | - | 908 W/m² | - |
| 1788021759 | 20° C | 39% | 1013 hPa | 0 mm | - | 829 W/m² | - |
| 1788021459 | 20.56° C | 41% | 1013 hPa | 0 mm | - | 845 W/m² | - |
* Rain latest hour (hover to see other rain measurements)
** Current wind speed in m/s (hover to see current wind gust speed)